Home > Weather > Burgdorf > Past weeks

Flag for Germany Weather for the Past 2 Weeks in Burgdorf, Lower Saxony, Germany

Now
45 °F

Passing clouds.


Feels Like: 40 °F
Forecast: 43 / 53 °F
Wind: 8 mph from South

Location: Celle Airport

Current Time: Feb 6, 2016 at 10:40:38 PM

Latest Report: Feb 6, 2016 at 9:20 PM


Visibility: N/A

Pressure: 29.71 "Hg

Humidity: 76%

Dew point: 37 °F

Location of BurgdorfLocation

Historic Weather in Burgdorf — Graph

°F

Burgdorf Temperature Yesterday

Maximum temperature yesterday: 46 °F (at 11:20 PM)
Minimum temperature yesterday: 36 °F (at 4:20 AM)
Average temperature yesterday: 40 °F

High & Low Weather Summary for the Past Weeks

 TemperatureHumidityPressure
High54 °F (Jan 25, 2:20 PM)100% (Jan 23, 6:20 AM)30.51 "Hg (Jan 23, 6:20 AM)
Low23 °F (Jan 22, 9:20 PM)57% (Jan 28, 1:20 PM)29.59 "Hg (Jan 30, 2:20 PM)
Average44 °F84%30.03 "Hg
* Reported Jan 22 9:20 PM — Feb 6 9:20 PM, Burgdorf, Weather by CustomWeather, © 2016

Note: Actual official high and low records may vary slightly from our data, if they occured in-between our weather recording intervals... More about our weather records

Advertising

Burgdorf Weather History for the Previous 24 Hours

 ConditionsComfort  
Time TempWeatherWind HumidityBarometerVisibility
9:20 PM
Sat, Feb 6
45 °FPassing clouds.8 mph76%29.71 "HgN/A
8:20 PM48 °FPassing clouds.8 mph71%29.71 "HgN/A
7:20 PM46 °FPassing clouds.5 mph76%29.74 "HgN/A
6:20 PM43 °FPassing clouds.5 mph87%29.74 "HgN/A
5:20 PM48 °FPartly cloudy.6 mph76%29.77 "HgN/A
4:20 PM50 °FScattered clouds.8 mph71%29.77 "HgN/A
3:20 PM52 °FPartly sunny.12 mph67%29.80 "HgN/A
2:20 PM52 °FPartly sunny.10 mph67%29.80 "HgN/A
1:20 PM52 °FScattered clouds.12 mph72%29.83 "HgN/A
12:20 PM50 °FBroken clouds.12 mph76%29.86 "HgN/A
11:20 AM48 °FPartly sunny.6 mph76%29.89 "HgN/A
10:20 AM46 °FOvercast.6 mph82%29.89 "HgN/A
9:20 AM45 °FBroken clouds.8 mph87%29.92 "HgN/A
8:20 AM45 °FBroken clouds.5 mph87%29.95 "HgN/A
7:20 AM46 °FPassing clouds.7 mph82%29.95 "HgN/A
6:20 AM46 °FPassing clouds.10 mph87%29.95 "HgN/A
5:20 AM46 °FPassing clouds.10 mph87%29.98 "HgN/A
4:20 AM46 °FPassing clouds.8 mph87%30.01 "HgN/A
3:20 AM46 °FPassing clouds.8 mph87%30.01 "HgN/A
2:20 AM46 °FPassing clouds.6 mph87%30.04 "HgN/A
1:20 AM46 °FPassing clouds.6 mph93%30.04 "HgN/A
12:20 AM45 °FDrizzle. Fog.5 mph100%30.07 "Hg3 mi
11:20 PM
Fri, Feb 5
46 °FDrizzle. Fog.7 mph93%30.07 "Hg3 mi
10:20 PM45 °FFog.6 mph100%30.09 "Hg3 mi
Weather by CustomWeather, © 2016

See weather overviewHow to use our weather pages